Retour au catalogue

IRIDIUM 47 DEB

ActifPO
NORAD 40251·DEBRIS·🇺🇸 United States

Lancé Dec 20, 1997 depuis Vandenberg Space Force Base

Loading…

Prochains Passages (prochaines 24 heures)

TLE

FraisSource: Space-Track

Époque: Sep 13, 2026, 04:25 UTC

1 40251U 97082L   26256.18415693  .00004996  00000-0  16329-2 0  9997
2 40251  86.3282 338.8791 0118609 219.0722 140.1865 14.34440027614342

Suivez IRIDIUM 47 DEB en temps réel avec AllMySat

Download on the App Store